Retour au catalogue

FENGYUN 1C DEB

ActifPO
NORAD 31717·DEBRIS·🇨🇳 China

Lancé May 10, 1999 depuis Taiyuan Satellite Launch Center

Loading…

Prochains Passages (prochaines 24 heures)

TLE

VieillissantSource: Space-Track

Époque: Sep 10, 2026, 11:10 UTC

1 31717U 99025CDQ 26253.46542009  .00002827  00000-0  12377-2 0  9993
2 31717  96.9316 339.1418 0155201 281.3173  77.0604 14.18047633984982

Suivez FENGYUN 1C DEB en temps réel avec AllMySat

Download on the App Store